Weather History for KOWD - November, 2013

Change the Weather History Date:

Wednesday, November 6, 2013

  Actual Average Record
Temperature  
Mean Temperature 47 °F -  
Max Temperature 61 °F 51 °F 62 °F (1999)
Min Temperature 33 °F 31 °F 21 °F (1998)
Degree Days  
Heating Degree Days 18    
Moisture  
Dew Point 40 °F    
Average Humidity 72    
Maximum Humidity 88    
Minimum Humidity 44    
Precipitation  
Precipitation 0.00 in - - ()
Sea Level Pressure  
Sea Level Pressure 30.30 in    
Wind  
Wind Speed 4 mph (SSW)    
Max Wind Speed 13 mph    
Max Gust Speed 22 mph    
Visibility 10 miles    
Events      
Averages and records for this station are not official NWS values.
T = Trace of Precipitation, MM = Missing Value Source: NWS Daily Summary

Daily Weather History Graph

Daily Weather History Graph

Search for Another Location

Airport or City:

Trip Planner

Search our weather history database for the weather conditions in past years. The results will help you decide how hot, cold, wet, or windy it might be!

Date:

Astronomy

Nov. 06, 2013 Rise Set
Actual Time 6:24 AM EST 4:31 PM EST
Civil Twilight 5:54 AM EST 5:01 PM EST
Nautical Twilight 5:21 AM EST 5:34 PM EST
Astronomical Twilight 4:48 AM EST 6:07 PM EST
Moon 9:37 AM EST (11/6) 7:31 PM EST (11/6)
Length of Visible Light 11h 06m
Length of Day
10h 07m
Waxing Crescent, 13% of the Moon is Illuminated
Nov 6
Waxing Crescent
Nov 10
First Quarter
Nov 17
Full
Nov 25
Last Quarter
Dec 2
New

Hourly Weather History & Observations

Time (EST) Temp. Dew Point Humidity Pressure Visibility Wind Dir Wind Speed Gust Speed Precip Events Conditions
12:53 AM 33.1 °F 28.0 °F 82% 30.52 in 10.0 mi Calm Calm - N/A   Clear
1:53 AM 35.1 °F 30.0 °F 82% 30.49 in 10.0 mi Calm Calm - N/A   Clear
2:53 AM 36.0 °F 30.9 °F 82% 30.48 in 10.0 mi Calm Calm - N/A   Clear
3:53 AM 37.0 °F 32.0 °F 82% 30.47 in 10.0 mi Calm Calm - N/A   Clear
4:53 AM 36.0 °F 32.0 °F 86% 30.47 in 10.0 mi Calm Calm - N/A   Clear
5:53 AM 37.0 °F 33.1 °F 86% 30.46 in 10.0 mi Calm Calm - N/A   Clear
6:53 AM 37.9 °F 33.1 °F 83% 30.45 in 10.0 mi Calm Calm - N/A   Clear
7:53 AM 43.0 °F 37.0 °F 80% 30.44 in 10.0 mi Calm Calm - N/A   Clear
8:53 AM 50.0 °F 39.9 °F 68% 30.42 in 10.0 mi South 5.8 mph - N/A   Clear
9:53 AM 55.0 °F 39.9 °F 57% 30.39 in 10.0 mi South 8.1 mph - N/A   Clear
10:53 AM 57.9 °F 39.9 °F 51% 30.35 in 10.0 mi South 10.4 mph 19.6 mph N/A   Clear
11:53 AM 59.0 °F 39.9 °F 49% 30.31 in 10.0 mi SW 12.7 mph - N/A   Clear
12:53 PM 57.9 °F 39.9 °F 51% 30.27 in 10.0 mi South 12.7 mph 18.4 mph N/A   Clear
1:53 PM 60.1 °F 39.9 °F 47% 30.24 in 10.0 mi SW 12.7 mph 21.9 mph N/A   Clear
2:53 PM 61.0 °F 39.0 °F 44% 30.22 in 10.0 mi SSW 11.5 mph - N/A   Clear
3:53 PM 57.0 °F 44.1 °F 62% 30.22 in 10.0 mi South 10.4 mph - N/A   Clear
4:53 PM 54.0 °F 44.1 °F 69% 30.21 in 10.0 mi South 5.8 mph - N/A   Clear
5:53 PM 55.0 °F 44.1 °F 67% 30.21 in 10.0 mi SSW 6.9 mph - N/A   Partly Cloudy
6:53 PM 54.0 °F 46.9 °F 77% 30.19 in 10.0 mi South 9.2 mph - N/A   Clear
7:53 PM 54.0 °F 48.0 °F 80% 30.16 in 10.0 mi South 9.2 mph - N/A   Mostly Cloudy
8:53 PM 54.0 °F 48.9 °F 83% 30.13 in 10.0 mi South 6.9 mph - N/A   Clear
9:53 PM 55.0 °F 51.1 °F 86% 30.11 in 10.0 mi SW 8.1 mph - N/A   Mostly Cloudy
10:09 PM 55.4 °F 51.8 °F 88% 30.10 in 10.0 mi SSW 10.4 mph - N/A   Scattered Clouds
10:53 PM 54.0 °F 50.0 °F 86% 30.09 in 10.0 mi SSW 10.4 mph - N/A   Clear
11:53 PM 54.0 °F 48.9 °F 83% 30.05 in 10.0 mi SSW 6.9 mph - N/A   Clear